| time (UTC) | temp F | wind direction | speed knots | gust knots | rain 1hr in | rain 24hr in | rain mn in | humidity % | barometer mb |
| 20260510132004 | 62 | 54 | 11.3 | 17.4 | 0.00 | 0.00 | 0.00 | 78 | 894.1 |
| 20260510131004 | 61 | 56 | 11.3 | 18.2 | 0.00 | 0.00 | 0.00 | 78 | 893.9 |
| 20260510130004 | 61 | 50 | 13.0 | 20.0 | 0.00 | 0.00 | 0.00 | 79 | 893.7 |
| 20260510125004 | 61 | 49 | 15.6 | 21.7 | 0.00 | 0.00 | 0.00 | 79 | 893.4 |
| 20260510124004 | 61 | 51 | 13.0 | 19.1 | 0.00 | 0.00 | 0.00 | 79 | 893.2 |
| 20260510123004 | 61 | 51 | 13.9 | 20.9 | 0.00 | 0.00 | 0.00 | 81 | 893.0 |
| 20260510122004 | 61 | 55 | 10.4 | 20.0 | 0.00 | 0.00 | 0.00 | 81 | 892.9 |
| 20260510121005 | 61 | 56 | 9.6 | 17.4 | 0.00 | 0.00 | 0.00 | 82 | 892.9 |
| 20260510120005 | 61 | 55 | 12.2 | 17.4 | 0.00 | 0.00 | 0.00 | 82 | 892.4 |
| 20260510114004 | 60 | 57 | 10.4 | 18.2 | 0.00 | 0.00 | 0.00 | 84 | 892.6 |
| 20260510113004 | 60 | 71 | 10.4 | 19.1 | 0.00 | 0.00 | 0.00 | 84 | 892.1 |
| 20260510111004 | 60 | 51 | 10.4 | 20.0 | 0.00 | 0.00 | 0.00 | 84 | 892.2 |
| 20260510110005 | 60 | 53 | 13.0 | 20.0 | 0.00 | 0.00 | 0.00 | 84 | 892.0 |
| 20260510105004 | 60 | 46 | 13.0 | 20.9 | 0.00 | 0.00 | 0.00 | 83 | 892.0 |
| 20260510104004 | 60 | 46 | 13.0 | 17.4 | 0.00 | 0.00 | 0.00 | 82 | 891.6 |
| 20260510101004 | 60 | 61 | 6.1 | 12.2 | 0.00 | 0.00 | 0.00 | 81 | 891.2 |
| 20260510095003 | 61 | 75 | 5.2 | 12.2 | 0.00 | 0.00 | 0.00 | 79 | 891.1 |
| 20260510094004 | 61 | 81 | 7.8 | 12.2 | 0.00 | 0.00 | 0.00 | 79 | 890.9 |
| 20260510093004 | 62 | 67 | 6.1 | 11.3 | 0.00 | 0.00 | 0.00 | 78 | 890.6 |
| 20260510092004 | 62 | 57 | 6.1 | 11.3 | 0.00 | 0.00 | 0.00 | 76 | 890.7 |
| 20260510091004 | 62 | 66 | 7.0 | 12.2 | 0.00 | 0.00 | 0.00 | 75 | 890.7 |
| 20260510090004 | 63 | 82 | 7.8 | 12.2 | 0.00 | 0.00 | 0.00 | 74 | 890.6 |
| 20260510085004 | 64 | 81 | 7.8 | 15.6 | 0.00 | 0.00 | 0.00 | 71 | 890.5 |
| 20260510083004 | 65 | 61 | 8.7 | 13.9 | 0.00 | 0.00 | 0.00 | 68 | 890.5 |
| 20260510082003 | 66 | 63 | 7.8 | 12.2 | 0.00 | 0.00 | 0.00 | 67 | 890.5 |
| 20260510081005 | 67 | 73 | 6.1 | 11.3 | 0.00 | 0.00 | 0.00 | 66 | 890.4 |
| 20260510075004 | 68 | 65 | 4.3 | 8.7 | 0.00 | 0.00 | 0.00 | 65 | 890.5 |
| 20260510074003 | 68 | 59 | 5.2 | 8.7 | 0.00 | 0.00 | 0.00 | 65 | 890.6 |
| 20260510073004 | 69 | 62 | 5.2 | 11.3 | 0.00 | 0.00 | 0.00 | 64 | 890.6 |
| 20260510072004 | 69 | 80 | 8.7 | 12.2 | 0.00 | 0.00 | 0.00 | 64 | 890.4 |
| 20260510071004 | 69 | 103 | 8.7 | 12.2 | 0.00 | 0.00 | 0.00 | 65 | 890.3 |
| 20260510070003 | 69 | 113 | 7.8 | 12.2 | 0.00 | 0.00 | 0.00 | 65 | 890.3 |
| 20260510065003 | 69 | 66 | 6.1 | 12.2 | 0.00 | 0.00 | 0.00 | 64 | 890.0 |
| 20260510064004 | 69 | 62 | 7.0 | 11.3 | 0.00 | 0.00 | 0.00 | 64 | 889.7 |
| 20260510063004 | 70 | 60 | 7.8 | 11.3 | 0.00 | 0.00 | 0.00 | 62 | 889.6 |
| 20260510062004 | 70 | 44 | 7.8 | 14.8 | 0.00 | 0.00 | 0.00 | 61 | 889.5 |
| 20260510061003 | 71 | 43 | 10.4 | 14.8 | 0.00 | 0.00 | 0.00 | 60 | 889.4 |
| 20260510060003 | 71 | 41 | 7.8 | 11.3 | 0.00 | 0.00 | 0.00 | 58 | 889.6 |
| 20260510055004 | 71 | 53 | 6.1 | 8.7 | 0.00 | 0.00 | 0.00 | 58 | 889.6 |
| 20260510054006 | 72 | 105 | 6.1 | 13.9 | 0.00 | 0.00 | 0.00 | 56 | 889.5 |
| 20260510053006 | 73 | 88 | 8.7 | 14.8 | 0.00 | 0.00 | 0.00 | 55 | 889.4 |
| 20260510051006 | 73 | 91 | 8.7 | 21.7 | 0.00 | 0.00 | 0.00 | 54 | 889.6 |
| 20260510050005 | 74 | 45 | 11.3 | 15.6 | 0.00 | 0.00 | 0.00 | 52 | 888.9 |
| 20260510045006 | 74 | 55 | 6.1 | 13.9 | 0.00 | 0.00 | 0.00 | 51 | 889.8 |
| 20260510044006 | 75 | 42 | 11.3 | 13.0 | 0.00 | 0.00 | 0.00 | 49 | 889.3 |
| 20260510043006 | 75 | 62 | 6.1 | 11.3 | 0.00 | 0.00 | 0.00 | 46 | 888.9 |
| 20260510042006 | 76 | 66 | 5.2 | 10.4 | 0.00 | 0.00 | 0.00 | 42 | 888.8 |
| 20260510041005 | 77 | 97 | 7.0 | 13.0 | 0.00 | 0.00 | 0.00 | 40 | 888.5 |
| 20260510040006 | 77 | 67 | 7.0 | 11.3 | 0.00 | 0.00 | 0.00 | 31 | 888.2 |
| 20260510035006 | 78 | 77 | 4.3 | 6.1 | 0.00 | 0.00 | 0.00 | 16 | 888.2 |
| 20260510034006 | 79 | 84 | 2.6 | 4.3 | 0.00 | 0.00 | 0.00 | 16 | 888.0 |
| 20260510032006 | 82 | 310 | 2.6 | 2.6 | 0.00 | 0.00 | 0.00 | 14 | 887.8 |
| 20260510030006 | 83 | 283 | 1.7 | 4.3 | 0.00 | 0.00 | 0.00 | 14 | 887.8 |
| 20260510025006 | 85 | 239 | 1.7 | 7.8 | 0.00 | 0.00 | 0.00 | 13 | 887.7 |
| 20260510024006 | 85 | 215 | 4.3 | 11.3 | 0.00 | 0.00 | 0.00 | 12 | 887.6 |
| 20260510023006 | 82 | 282 | 6.1 | 11.3 | 0.00 | 0.00 | 0.00 | 14 | 887.4 |
| 20260510022006 | 80 | 272 | 5.2 | 13.0 | 0.00 | 0.00 | 0.00 | 14 | 887.6 |
| 20260510020005 | 80 | 308 | 0.9 | 2.6 | 0.00 | 0.00 | 0.00 | 12 | 886.8 |
| 20260510015006 | 82 | 322 | 1.7 | 4.3 | 0.00 | 0.00 | 0.00 | 11 | 886.7 |
| 20260510014006 | 83 | 3 | 2.6 | 4.3 | 0.00 | 0.00 | 0.00 | 10 | 886.6 |
| 20260510013006 | 84 | 4 | 2.6 | 5.2 | 0.00 | 0.00 | 0.00 | 10 | 886.5 |
| 20260510011006 | 87 | 321 | 3.5 | 5.2 | 0.00 | 0.00 | 0.00 | 11 | 886.4 |
| 20260510010005 | 89 | 318 | 4.3 | 8.7 | 0.00 | 0.00 | 0.00 | 10 | 886.3 |
| 20260510005006 | 90 | 317 | 6.1 | 8.7 | 0.00 | 0.00 | 0.00 | 10 | 886.2 |
| 20260510000005 | 91 | 287 | 6.1 | 12.2 | 0.00 | 0.00 | 0.00 | 10 | 886.3 |
| 20260509235006 | 91 | 312 | 7.0 | 13.9 | 0.00 | 0.00 | 0.00 | 10 | 886.3 |
| 20260509234006 | 91 | 296 | 11.3 | 15.6 | 0.00 | 0.00 | 0.00 | 10 | 886.2 |
| 20260509233005 | 92 | 313 | 11.3 | 15.6 | 0.00 | 0.00 | 0.00 | 10 | 886.2 |
| 20260509232005 | 92 | 303 | 12.2 | 17.4 | 0.00 | 0.00 | 0.00 | 10 | 886.4 |
| 20260509231005 | 92 | 307 | 8.7 | 15.6 | 0.00 | 0.00 | 0.00 | 9 | 886.5 |
| 20260509230006 | 92 | 280 | 11.3 | 20.0 | 0.00 | 0.00 | 0.00 | 10 | 886.5 |
| 20260509223006 | 92 | 304 | 13.0 | 20.0 | 0.00 | 0.00 | 0.00 | 11 | 886.2 |
| 20260509222006 | 92 | 299 | 8.7 | 22.6 | 0.00 | 0.00 | 0.00 | 11 | 886.1 |
| 20260509221005 | 93 | 305 | 12.2 | 18.2 | 0.00 | 0.00 | 0.00 | 12 | 886.0 |
| 20260509220006 | 91 | 269 | 8.7 | 25.2 | 0.00 | 0.00 | 0.00 | 12 | 886.5 |
| 20260509212006 | 91 | 280 | 8.7 | 19.1 | 0.00 | 0.00 | 0.00 | 12 | 886.7 |
| 20260509211006 | 93 | 301 | 7.8 | 12.2 | 0.00 | 0.00 | 0.00 | 11 | 886.9 |
| 20260509210006 | 93 | 286 | 7.8 | 20.9 | 0.00 | 0.00 | 0.00 | 10 | 887.2 |
| 20260509205007 | 94 | 279 | 7.8 | 20.0 | 0.00 | 0.00 | 0.00 | 11 | 887.0 |
| 20260509203006 | 92 | 297 | 8.7 | 22.6 | 0.00 | 0.00 | 0.00 | 12 | 887.2 |
| 20260509202006 | 92 | 271 | 8.7 | 17.4 | 0.00 | 0.00 | 0.00 | 14 | 886.9 |
| 20260509201006 | 92 | 227 | 6.1 | 13.0 | 0.00 | 0.00 | 0.00 | 13 | 887.5 |
| 20260509200006 | 92 | 257 | 4.3 | 14.8 | 0.00 | 0.00 | 0.00 | 13 | 887.7 |
| 20260509195005 | 92 | 251 | 6.1 | 12.2 | 0.00 | 0.00 | 0.00 | 13 | 887.8 |
| 20260509194005 | 92 | 247 | 5.2 | 12.2 | 0.00 | 0.00 | 0.00 | 14 | 888.2 |
| 20260509193005 | 91 | 246 | 4.3 | 10.4 | 0.00 | 0.00 | 0.00 | 15 | 888.2 |
| 20260509192006 | 89 | 272 | 6.1 | 17.4 | 0.00 | 0.00 | 0.00 | 17 | 888.4 |
| 20260509191005 | 90 | 213 | 7.0 | 14.8 | 0.00 | 0.00 | 0.00 | 18 | 888.7 |
| 20260509190006 | 88 | 216 | 7.0 | 15.6 | 0.00 | 0.00 | 0.00 | 19 | 888.9 |
| 20260509184005 | 88 | 220 | 6.1 | 15.6 | 0.00 | 0.00 | 0.00 | 19 | 889.4 |
| 20260509183006 | 88 | 223 | 5.2 | 18.2 | 0.00 | 0.00 | 0.00 | 20 | 889.7 |
| 20260509182006 | 87 | 226 | 7.0 | 14.8 | 0.00 | 0.00 | 0.00 | 20 | 889.8 |
| 20260509181005 | 86 | 210 | 7.8 | 17.4 | 0.00 | 0.00 | 0.00 | 21 | 889.9 |
| 20260509180006 | 85 | 207 | 9.6 | 15.6 | 0.00 | 0.00 | 0.00 | 21 | 890.0 |
| 20260509175005 | 85 | 196 | 11.3 | 17.4 | 0.00 | 0.00 | 0.00 | 22 | 890.1 |
| 20260509174005 | 84 | 219 | 7.8 | 17.4 | 0.00 | 0.00 | 0.00 | 24 | 890.4 |
| 20260509173006 | 84 | 201 | 11.3 | 20.0 | 0.00 | 0.00 | 0.00 | 25 | 890.5 |
| 20260509172005 | 83 | 174 | 7.8 | 17.4 | 0.00 | 0.00 | 0.00 | 27 | 890.8 |
| 20260509171005 | 82 | 181 | 10.4 | 17.4 | 0.00 | 0.00 | 0.00 | 28 | 890.8 |
| 20260509165006 | 81 | 181 | 8.7 | 14.8 | 0.00 | 0.00 | 0.00 | 31 | 891.0 |
| 20260509162005 | 78 | 180 | 8.7 | 14.8 | 0.00 | 0.00 | 0.00 | 38 | 891.4 |
| 20260509161005 | 78 | 205 | 8.7 | 13.0 | 0.00 | 0.00 | 0.00 | 40 | 891.4 |
| 20260509160005 | 77 | 178 | 9.6 | 15.6 | 0.00 | 0.00 | 0.00 | 40 | 891.5 |
| 20260509155005 | 75 | 198 | 6.1 | 13.9 | 0.00 | 0.00 | 0.00 | 44 | 891.6 |
| 20260509154006 | 73 | 170 | 6.1 | 14.8 | 0.00 | 0.00 | 0.00 | 48 | 891.7 |
| 20260509153006 | 72 | 198 | 6.1 | 11.3 | 0.00 | 0.00 | 0.00 | 51 | 891.8 |
| 20260509151005 | 71 | 174 | 6.1 | 11.3 | 0.00 | 0.00 | 0.00 | 56 | 892.0 |
| 20260509150005 | 69 | 181 | 6.1 | 11.3 | 0.00 | 0.00 | 0.00 | 58 | 891.9 |
| 20260509145006 | 68 | 174 | 8.7 | 13.0 | 0.00 | 0.00 | 0.00 | 58 | 892.0 |
| 20260509144005 | 67 | 184 | 6.1 | 10.4 | 0.00 | 0.00 | 0.00 | 61 | 892.0 |
| 20260509143005 | 66 | 189 | 5.2 | 10.4 | 0.00 | 0.00 | 0.00 | 63 | 892.0 |
| 20260509142006 | 64 | 150 | 4.3 | 10.4 | 0.00 | 0.00 | 0.00 | 64 | 892.1 |
| 20260509141005 | 63 | 163 | 5.2 | 10.4 | 0.00 | 0.00 | 0.00 | 65 | 892.1 |
| 20260509140006 | 63 | 165 | 5.2 | 10.4 | 0.00 | 0.00 | 0.00 | 66 | 892.2 |
| 20260509135005 | 61 | 159 | 5.2 | 7.8 | 0.00 | 0.00 | 0.00 | 63 | 892.3 |
| 20260509134005 | 60 | 147 | 3.5 | 6.1 | 0.00 | 0.00 | 0.00 | 58 | 892.3 |
| 20260509133005 | 60 | 223 | 0.9 | 2.6 | 0.00 | 0.00 | 0.00 | 49 | 892.3 |